Weather History for Estherville, IA

Change the Weather History Date:

Tuesday, November 9, 2010

  Actual Average Record
Temperature  
Mean Temperature 52 °F 36 °F  
Max Temperature 68 °F 46 °F 71 °F (1999)
Min Temperature 36 °F 27 °F 6 °F (1991)
Degree Days  
Heating Degree Days 13 29  
Month to date heating degree days 180 239  
Since 1 July heating degree days 742 988  
Cooling Degree Days 0 0  
Month to date cooling degree days 0 0  
Year to date cooling degree days 721 593  
Growing Degree Days 2 (Base 50)    
Moisture  
Dew Point 42 °F    
Average Humidity 67    
Maximum Humidity 85    
Minimum Humidity 49    
Precipitation  
Precipitation 0.00 in 0.05 in 1.95 in (1977)
Month to date precipitation 0.00 0.49  
Year to date precipitation 32.82  
Sea Level Pressure  
Sea Level Pressure 29.73 in    
Wind  
Wind Speed 13 mph (SSE)    
Max Wind Speed 25 mph    
Max Gust Speed 32 mph    
Visibility 10 miles    
Events      
T = Trace of Precipitation, MM = Missing Value Source: NWS Daily Summary

Daily Weather History Graph

Daily Weather History Graph

Search for Another Location

Airport:

Trip Planner

Search our weather history database for the weather conditions in past years. The results will help you decide how hot, cold, wet, or windy it might be!

Date:

Astronomy

Nov. 09, 2010 Rise Set
Actual Time 7:04 AM CST 5:00 PM CST
Civil Twilight 6:34 AM CST 5:30 PM CST
Nautical Twilight 6:00 AM CST 6:04 PM CST
Astronomical Twilight 5:26 AM CST 6:38 PM CST
Moon 10:50 AM CST (11/9) 7:55 PM CST (11/9)
Length of Visible Light 10h 56m
Length of Day
9h 55m
Waxing Crescent, 15% of the Moon is Illuminated
Nov 9
Waxing Crescent
Nov 13
First Quarter
Nov 21
Full
Nov 28
Last Quarter
Dec 5
New

Hourly Weather History & Observations

Time (CST) Temp. Windchill Dew Point Humidity Pressure Visibility Wind Dir Wind Speed Gust Speed Precip Events Conditions
12:52 AM 39.0 °F 33.4 °F 34.0 °F 82% 29.74 in 10.0 mi South 8.1 mph - N/A   Clear
1:52 AM 39.0 °F 32.3 °F 34.0 °F 82% 29.73 in 10.0 mi South 10.4 mph - N/A   Clear
2:52 AM 37.9 °F 34.4 °F 34.0 °F 86% 29.73 in 10.0 mi South 4.6 mph - N/A   Clear
3:52 AM 37.0 °F 32.4 °F 33.1 °F 86% 29.73 in 10.0 mi South 5.8 mph - N/A   Clear
4:52 AM 37.0 °F 34.5 °F 34.0 °F 89% 29.75 in 10.0 mi SSE 3.5 mph - N/A   Clear
5:52 AM 37.0 °F 31.6 °F 34.0 °F 89% 29.75 in 10.0 mi SSE 6.9 mph - N/A   Clear
6:52 AM 37.0 °F 33.3 °F 34.0 °F 89% 29.75 in 10.0 mi South 4.6 mph - N/A   Clear
7:52 AM 39.0 °F 36.8 °F 36.0 °F 89% 29.77 in 10.0 mi SSE 3.5 mph - N/A   Clear
8:52 AM 46.9 °F - 41.0 °F 80% 29.77 in 10.0 mi South 11.5 mph - N/A   Clear
9:52 AM 52.0 °F - 43.0 °F 71% 29.77 in 10.0 mi South 15.0 mph - N/A   Clear
10:52 AM 57.9 °F - 46.0 °F 65% 29.75 in 10.0 mi SSE 13.8 mph - N/A   Clear
11:52 AM 62.1 °F - 48.0 °F 60% 29.73 in 10.0 mi SSE 15.0 mph - N/A   Clear
12:52 PM 66.0 °F - 48.0 °F 52% 29.70 in 10.0 mi SE 20.7 mph - N/A   Clear
1:52 PM 66.9 °F - 48.0 °F 51% 29.68 in 10.0 mi SE 21.9 mph 29.9 mph N/A   Clear
2:52 PM 66.9 °F - 48.0 °F 51% 29.68 in 10.0 mi SSE 18.4 mph 27.6 mph N/A   Clear
3:52 PM 68.0 °F - 48.0 °F 49% 29.68 in 10.0 mi SSE 23.0 mph 31.1 mph N/A   Clear
4:52 PM 63.0 °F - 46.9 °F 56% 29.68 in 10.0 mi SE 19.6 mph - N/A   Clear
5:52 PM 61.0 °F - 46.9 °F 60% 29.70 in 10.0 mi SE 20.7 mph - N/A   Clear
6:52 PM 61.0 °F - 46.9 °F 60% 29.71 in 10.0 mi SSE 16.1 mph - N/A   Clear
7:52 PM 60.1 °F - 46.0 °F 60% 29.72 in 10.0 mi SSE 16.1 mph - N/A   Clear
8:52 PM 57.9 °F - 46.0 °F 65% 29.73 in 10.0 mi SSE 12.7 mph - N/A   Clear
9:52 PM 57.9 °F - 46.0 °F 65% 29.75 in 10.0 mi SSE 15.0 mph - N/A   Clear
10:52 PM 57.0 °F - 46.0 °F 67% 29.75 in 10.0 mi South 15.0 mph - N/A   Clear
11:52 PM 55.9 °F - 46.0 °F 69% 29.75 in 10.0 mi SSE 16.1 mph - N/A   Clear